User: anonymous   Login
Location: Unspecified
(0.0000°N, 0.0000°E)
Time: 01:10:27
(UTC+00:00)
Language:

STARLINK-3522 - Orbit

View from above orbital plane
View from above orbital plane
View from above satellite
View from above satellite

Ground track
Ground track

The orbit is defined by the following mean orbital elements,

1 51725U          26145.55592578 +.00000000 +00000-0 +22487-4 0 00004
2 51725  53.2135 344.0526 0001388  89.2438 270.8713 15.08842249    00
Epoch (UTC): 25 May 2026 13:20:31
Eccentricity: 0.0001388
inclination: 53.2135°
perigee height: 539 km
apogee height: 541 km
right ascension of ascending node: 344.0526°
argument of perigee: 89.2438°
revolutions per day: 15.08842249
mean anomaly at epoch: 270.8713°

The dashed part of the orbit path shows where the satellite is in the earth's shadow,  

DLR